[[{"header":{"parameterUnit":"m.s-1","parameterCategory":1,"la1":30.2991,"la2":30.254,"lo1":-89.0895,"lo2":-89.0444,"dy":0.0017,"dx":0.0017,"nx":28,"ny":28,"refTime":"2024-10-10T03:00:00:Z","depth":0,"parameterNumber":2,"parameterNumberName":"U-component_of_WINDS"},"data":[0,0,0,0,0,0,0,0,0,0,0,0,0,0,0,0,0,0,0,0,0,0,0,0,0,0,0,0,0,0,0,0,0,0,0,0,0,0,0,0,0,0,0,0,0,0,0,0,0,0,0,0,0,0,0,0,0,0,-2.8479,-2.8478,0,-2.8465,-2.8465,-2.8465,-2.8365,-2.8363,-2.836,-2.8358,-2.8347,-2.8349,-2.8351,0,0,0,0,0,0,0,0,0,0,0,0,0,-2.8421,-2.8423,-2.8479,-2.8478,-2.8478,-2.8465,-2.8465,-2.8465,-2.8366,-2.8363,-2.836,-2.8357,-2.8346,-2.8349,-2.8351,0,0,0,0,0,0,0,0,0,0,0,0,0,-2.8431,-2.8423,-2.8479,-2.8427,-2.8422,-2.8465,-2.8465,-2.8465,-2.8366,-2.8363,-2.8359,-2.8355,-2.8345,-2.8348,-2.8351,-2.8443,0,0,-2.836,-2.8362,0,0,0,0,0,0,0,0,-2.8431,-2.8433,-2.8435,-2.8431,-2.8425,-2.8413,-2.8441,-2.8458,-2.8367,-2.8388,-2.8358,-2.8354,-2.8372,-2.8373,-2.8378,-2.8443,-2.8442,-2.8361,-2.8362,-2.8364,-2.8365,0,0,0,0,0,0,0,-2.843,-2.8433,-2.8473,-2.8435,-2.8429,-2.8406,-2.8403,-2.8443,-2.8401,-2.8386,-2.8378,-2.8378,-2.8369,-2.8376,-2.8377,-2.8442,-2.8361,-2.8363,-2.8365,-2.8366,-2.8584,-2.8588,0,0,0,0,0,0,-2.8436,-2.8433,-2.8474,-2.8473,-2.8419,-2.841,-2.8407,-2.8421,-2.84,-2.8393,-2.8381,-2.8373,-2.8372,-2.8374,-2.8377,-2.8485,-2.8364,-2.8367,-2.8368,-2.858,-2.8585,-2.8589,0,0,0,0,0,0,-2.8435,-2.8441,-2.8474,-2.8451,-2.8454,-2.8415,-2.8431,-2.8423,-2.8429,-2.8397,-2.8389,-2.8396,-2.8369,-2.8372,-2.8428,-2.8483,-2.8368,-2.8371,-2.8576,-2.8582,-2.8587,-2.8701,0,0,0,0,0,0,-2.8434,-2.8441,-2.8475,-2.8453,-2.8455,-2.8525,-2.8435,-2.8425,-2.8434,-2.8424,-2.8408,-2.8402,-2.8367,-2.8424,-2.8431,-2.8485,-2.8373,-2.857,-2.8578,-2.8585,-2.8692,-2.871,-2.8726,0,0,0,0,0,-2.8432,-2.8508,-2.8477,-2.8483,-2.8497,-2.8529,-2.853,-2.8487,-2.8439,-2.8473,-2.8453,-2.8403,-2.8475,-2.843,-2.8437,-2.8493,-2.8567,-2.8576,-2.8585,-2.8685,-2.8707,-2.8725,0,0,0,0,0,0,-2.8538,-2.8504,-2.8469,-2.8539,-2.8538,-2.8512,-2.8554,-2.8511,-2.8524,-2.8514,-2.8461,-2.8458,-2.8522,-2.8513,-2.8463,-2.8582,-2.8513,-2.8524,-2.8586,-2.8607,-2.8623,-2.8625,-2.8375,0,0,0,0,0,-2.8569,-2.8597,-2.8566,-2.8631,-2.8631,-2.8593,-2.8605,-2.8572,-2.8569,-2.8568,-2.8551,-2.855,-2.8573,-2.8589,-2.8608,-2.869,-2.8686,-2.8732,-2.8749,-2.8763,-2.8773,-2.8818,-2.8839,-2.8619,-2.8619,-2.8619,0,0,-2.8634,-2.8619,-2.864,-2.8651,-2.8646,-2.8678,-2.8593,-2.8629,-2.8653,-2.8573,-2.8625,-2.8613,-2.8609,-2.8679,-2.8709,-2.8673,-2.8833,-2.8774,-2.8785,-2.8788,-2.883,-2.885,-2.8869,-2.8625,-2.8624,-2.8623,0,0,-2.8769,-2.8759,-2.8813,-2.881,-2.8803,-2.8777,-2.879,-2.8771,-2.876,-2.8811,-2.8752,-2.878,-2.8819,-2.8819,-2.8825,-2.8961,-2.8917,-2.8969,-2.9057,-2.9101,-2.9119,-2.9134,-2.9185,-2.9203,-2.8979,-2.898,-2.898,0,-2.8851,-2.8895,-2.8846,-2.8887,-2.8895,-2.8824,-2.8879,-2.8878,-2.8879,-2.8886,-2.8846,-2.8896,-2.8888,-2.8958,-2.8991,-2.8997,-2.9012,-2.8971,-2.912,-2.9135,-2.9148,-2.9196,-2.9215,-2.8986,-2.8985,-2.8985,-2.8984,0,-2.8997,-2.9029,-2.9073,-2.9075,-2.9088,-2.9136,-2.9096,-2.9114,-2.9081,-2.906,-2.9114,-2.9102,-2.9118,-2.9132,-2.9099,-2.9198,-2.9176,-2.9129,-2.9058,-2.9176,-2.9221,-2.9239,-2.8996,-2.8993,-2.8991,-2.899,0,0,-2.9198,-2.9173,-2.9191,-2.9191,-2.9179,-2.9203,-2.9249,-2.9264,-2.9282,-2.9285,-2.9323,-2.9359,-2.9315,-2.9321,-2.9288,-2.9327,-2.9439,-2.9275,-2.9274,-2.9308,-2.955,-2.9587,-2.9609,-2.9409,-2.9412,-2.9414,-2.9551,0,-2.9329,-2.9405,-2.9363,-2.9445,-2.9475,-2.9409,-2.9448,-2.9446,-2.9428,-2.9452,-2.9431,-2.9459,-2.9398,-2.9402,-2.9437,-2.9418,-2.9487,-2.9407,-2.9446,-2.9448,-2.9451,-2.9632,-2.9671,-2.98,-2.9568,-2.9571,-2.9573,0,-2.9492,-2.9502,-2.9587,-2.9571,-2.9582,-2.9618,-2.963,-2.9653,-2.965,-2.9634,-2.9642,-2.96,-2.9645,-2.9574,-2.9636,-2.9583,-2.9596,-2.959,-2.9593,-2.9597,-2.9519,-2.9642,-2.984,-2.9861,-2.9599,-2.9597,-2.9595,0,-2.9633,-2.9668,-2.9723,-2.9726,-2.9708,-2.9735,-2.9729,-2.9722,-2.9735,-2.9745,-2.9753,-2.9769,-2.9779,-2.9793,-2.9757,-2.9708,-2.9825,-2.9751,-2.9815,-2.9817,-2.9844,-2.9843,-3.005,-2.985,-2.985,-2.9849,-2.9849,0,-2.9785,-2.984,-2.9787,-2.9821,-2.9882,-2.9834,-2.9895,-2.9882,-2.9877,-2.9909,-2.9852,-2.9883,-2.9833,-2.986,-2.9833,-2.989,-2.9894,-2.9884,-2.9877,-2.989,-2.9892,-2.99,-2.9891,-2.9854,-2.9853,-2.9852,-2.9851,0,-2.9953,-2.9919,-2.9976,-2.9954,-2.995,-2.9996,-2.9978,-3.001,-2.9988,-3.0029,-3.0036,-3.0003,-3.0032,-2.9997,-3.0023,-3.0004,-3.0083,-3.0061,-3.0085,-3.0079,-3.0146,-3.0142,-3.0366,-3.0394,-3.0175,-3.0177,-3.0179,0,-3.0053,-3.0094,-3.0077,-3.0094,-3.0091,-3.0119,-3.0132,-3.0087,-3.0103,-3.0103,-3.0136,-3.016,-3.0177,-3.0227,-3.0206,-3.0226,-3.0205,-3.0282,-3.0208,-3.0221,-3.0209,-3.0208,-3.0213,-3.0298,-3.0301,-3.0303,-3.0305,0,-3.0235,-3.0216,-3.0236,-3.0252,-3.0268,-3.0278,-3.0283,-3.0301,-3.0254,-3.0275,-3.0304,-3.0317,-3.0344,-3.037,-3.0384,-3.0379,-3.0336,-3.0328,-3.0345,-3.036,-3.0373,-3.0369,-3.0128,-3.0324,-3.0322,-3.032,-3.0319,-3.0319,-3.0373,-3.0407,-3.0401,-3.0426,-3.0426,-3.0432,-3.0462,-3.0444,-3.0467,-3.0485,-3.0457,-3.0494,-3.0491,-3.0506,-3.0507,-3.0536,-3.0503,-3.0526,-3.0532,-3.054,-3.0551,-3.0367,-3.0538,-3.0538,-3.0537,-3.0536,-3.0536,0,-3.0554,-3.0547,-3.057,-3.058,-3.06,-3.0556,-3.056,-3.0581,-3.0614,-3.0614,-3.0632,-3.0667,-3.0692,-3.0673,-3.0694,-3.0722,-3.0702,-3.0729,-3.0728,-3.0728,-3.0578,-3.0562,-3.0744,-3.0744,-3.0744,-3.0744,-3.0744,-3.0744,-3.0651,-3.0707,-3.0688,-3.0744,-3.0736,-3.0772,-3.0779,-3.0785,-3.0786,-3.0827,-3.0847,-3.0834,-3.0828,-3.0848,-3.087,-3.0864,-3.0876,-3.091,-3.0897,-3.0758,-3.0738,-3.0718,-3.0704,-3.0912,-3.0913,-3.1045,-3.1046,-3.1047]},{"header":{"parameterUnit":"m.s-1","parameterCategory":1,"la1":30.2991,"la2":30.254,"lo1":-89.0895,"lo2":-89.0444,"dy":0.0017,"dx":0.0017,"nx":28,"ny":28,"refTime":"2024-10-10T03:00:00:Z","depth":0,"parameterNumber":3,"parameterNumberName":"V-component_of_WINDS"},"data":[0,0,0,0,0,0,0,0,0,0,0,0,0,0,0,0,0,0,0,0,0,0,0,0,0,0,0,0,0,0,0,0,0,0,0,0,0,0,0,0,0,0,0,0,0,0,0,0,0,0,0,0,0,0,0,0,0,0,-1.0306,-1.0307,0,-1.0326,-1.0326,-1.0326,-1.0316,-1.0316,-1.0315,-1.0315,-1.0335,-1.0336,-1.0337,0,0,0,0,0,0,0,0,0,0,0,0,0,-1.0262,-1.0263,-1.0306,-1.0307,-1.0307,-1.0326,-1.0326,-1.0326,-1.0316,-1.0316,-1.0315,-1.0314,-1.0334,-1.0336,-1.0337,0,0,0,0,0,0,0,0,0,0,0,0,0,-1.0281,-1.0263,-1.0306,-1.0304,-1.0304,-1.0325,-1.0326,-1.0326,-1.0316,-1.0315,-1.0315,-1.0314,-1.0334,-1.0336,-1.0337,-1.0362,0,0,-1.0342,-1.0342,0,0,0,0,0,0,0,0,-1.028,-1.0283,-1.0304,-1.0304,-1.0304,-1.0318,-1.0318,-1.0338,-1.0316,-1.0312,-1.0315,-1.0314,-1.033,-1.0332,-1.0337,-1.0363,-1.0364,-1.0342,-1.0343,-1.0343,-1.0344,0,0,0,0,0,0,0,-1.0279,-1.0282,-1.0314,-1.0305,-1.0305,-1.0303,-1.0304,-1.0321,-1.0325,-1.0312,-1.0311,-1.0314,-1.033,-1.0335,-1.0337,-1.0364,-1.0342,-1.0343,-1.0344,-1.0345,-1.0413,-1.0414,0,0,0,0,0,0,-1.0278,-1.0281,-1.0313,-1.0315,-1.029,-1.0304,-1.0306,-1.0314,-1.0325,-1.0325,-1.0314,-1.0313,-1.0333,-1.0336,-1.0338,-1.0369,-1.0343,-1.0345,-1.0346,-1.0412,-1.0413,-1.0414,0,0,0,0,0,0,-1.0277,-1.0281,-1.0313,-1.0298,-1.0302,-1.0306,-1.0315,-1.0315,-1.0321,-1.0326,-1.0327,-1.032,-1.0333,-1.0336,-1.0356,-1.037,-1.0346,-1.0347,-1.0411,-1.0412,-1.0413,-1.0431,0,0,0,0,0,0,-1.0276,-1.028,-1.029,-1.0298,-1.0302,-1.0331,-1.0315,-1.0316,-1.0323,-1.0322,-1.0331,-1.0332,-1.0332,-1.0354,-1.0358,-1.0371,-1.0348,-1.041,-1.0411,-1.0413,-1.0429,-1.0433,-1.0436,0,0,0,0,0,-1.0274,-1.0294,-1.029,-1.0294,-1.0314,-1.0331,-1.0334,-1.0333,-1.0324,-1.0334,-1.0338,-1.0332,-1.0367,-1.0356,-1.036,-1.0375,-1.0409,-1.0411,-1.0413,-1.0428,-1.0432,-1.0436,0,0,0,0,0,0,-1.0287,-1.0295,-1.0291,-1.0314,-1.0322,-1.033,-1.0342,-1.0338,-1.0349,-1.0347,-1.0346,-1.0348,-1.037,-1.0374,-1.0362,-1.04,-1.0387,-1.039,-1.0397,-1.0401,-1.0404,-1.0404,-1.0349,0,0,0,0,0,-1.0292,-1.0305,-1.0311,-1.0331,-1.0335,-1.0338,-1.0345,-1.0344,-1.0353,-1.0356,-1.0361,-1.037,-1.0383,-1.0392,-1.0404,-1.0429,-1.0432,-1.0441,-1.0444,-1.0447,-1.045,-1.0466,-1.047,-1.0421,-1.0421,-1.0421,0,0,-1.0304,-1.031,-1.0318,-1.0334,-1.034,-1.0354,-1.0341,-1.0356,-1.0367,-1.0358,-1.0379,-1.0383,-1.0392,-1.0416,-1.0426,-1.042,-1.0464,-1.045,-1.0452,-1.0453,-1.0468,-1.0473,-1.0477,-1.0422,-1.0422,-1.0421,0,0,-1.0333,-1.0337,-1.0355,-1.0362,-1.0371,-1.0373,-1.0377,-1.0385,-1.0388,-1.0408,-1.0402,-1.0415,-1.0437,-1.0445,-1.0452,-1.0484,-1.048,-1.0488,-1.0505,-1.052,-1.0524,-1.0528,-1.0541,-1.0546,-1.049,-1.049,-1.049,0,-1.0346,-1.0367,-1.0365,-1.0381,-1.0389,-1.0381,-1.04,-1.0406,-1.0419,-1.0425,-1.0418,-1.0446,-1.0452,-1.0478,-1.0486,-1.0491,-1.0497,-1.0488,-1.0524,-1.0527,-1.0531,-1.0543,-1.0548,-1.0491,-1.0491,-1.0491,-1.0491,0,-1.0384,-1.0399,-1.0412,-1.0425,-1.0434,-1.0451,-1.0452,-1.0461,-1.0459,-1.0462,-1.0483,-1.049,-1.0504,-1.0509,-1.0507,-1.0536,-1.0532,-1.0524,-1.0511,-1.0536,-1.0549,-1.0553,-1.0493,-1.0493,-1.0492,-1.0492,0,0,-1.0423,-1.0434,-1.044,-1.0446,-1.0456,-1.0468,-1.0485,-1.0499,-1.0507,-1.0516,-1.0532,-1.0551,-1.0544,-1.0552,-1.055,-1.0563,-1.059,-1.0554,-1.0554,-1.0562,-1.0624,-1.0631,-1.0637,-1.0587,-1.0588,-1.0588,-1.0624,0,-1.0454,-1.0484,-1.0483,-1.0511,-1.0525,-1.0518,-1.0533,-1.0542,-1.0544,-1.0557,-1.056,-1.0574,-1.0563,-1.0568,-1.058,-1.0585,-1.0603,-1.0582,-1.0602,-1.0603,-1.0603,-1.0643,-1.0651,-1.0684,-1.0628,-1.0629,-1.063,0,-1.0494,-1.0505,-1.0535,-1.0544,-1.055,-1.0564,-1.0577,-1.0589,-1.0598,-1.0599,-1.0608,-1.0605,-1.0623,-1.0608,-1.0634,-1.0619,-1.0627,-1.0631,-1.0632,-1.0636,-1.062,-1.065,-1.0694,-1.0701,-1.0637,-1.0636,-1.0636,0,-1.0522,-1.0544,-1.0566,-1.0571,-1.0581,-1.0591,-1.0596,-1.0605,-1.0613,-1.0625,-1.0631,-1.0644,-1.0652,-1.0662,-1.0663,-1.0652,-1.0689,-1.0674,-1.0692,-1.0692,-1.0702,-1.0702,-1.0751,-1.0704,-1.0704,-1.0704,-1.0703,0,-1.0558,-1.0578,-1.0579,-1.0592,-1.0613,-1.0612,-1.0633,-1.0637,-1.0644,-1.0659,-1.0653,-1.0667,-1.0665,-1.068,-1.068,-1.0702,-1.0705,-1.0708,-1.0708,-1.071,-1.071,-1.0717,-1.0715,-1.0705,-1.0705,-1.0704,-1.0704,0,-1.0594,-1.0595,-1.0618,-1.0626,-1.0629,-1.0645,-1.0652,-1.0665,-1.0666,-1.0685,-1.0689,-1.0692,-1.0709,-1.071,-1.0728,-1.0729,-1.0757,-1.0753,-1.0754,-1.0754,-1.0773,-1.0772,-1.083,-1.0839,-1.0783,-1.0784,-1.0784,0,-1.0619,-1.0633,-1.0643,-1.0652,-1.0658,-1.0673,-1.0682,-1.068,-1.069,-1.0702,-1.0714,-1.0729,-1.0742,-1.0769,-1.0773,-1.0788,-1.0786,-1.0805,-1.0788,-1.079,-1.0789,-1.0789,-1.0792,-1.0809,-1.081,-1.081,-1.0811,0,-1.0662,-1.0662,-1.0675,-1.0689,-1.07,-1.0711,-1.0721,-1.0729,-1.0729,-1.074,-1.0757,-1.0767,-1.0786,-1.0802,-1.0816,-1.0822,-1.0817,-1.0816,-1.0821,-1.0824,-1.0825,-1.0827,-1.0765,-1.0815,-1.0815,-1.0814,-1.0814,-1.0814,-1.0695,-1.0708,-1.0717,-1.0733,-1.074,-1.075,-1.0763,-1.0766,-1.078,-1.0796,-1.0794,-1.0813,-1.0822,-1.0841,-1.0848,-1.0863,-1.0857,-1.0864,-1.0866,-1.0869,-1.0872,-1.0821,-1.0865,-1.0865,-1.0865,-1.0865,-1.0865,0,-1.074,-1.0746,-1.076,-1.0774,-1.0787,-1.078,-1.079,-1.0802,-1.0818,-1.0827,-1.084,-1.086,-1.0876,-1.0881,-1.0897,-1.0908,-1.0906,-1.0912,-1.0913,-1.0915,-1.0875,-1.087,-1.0914,-1.0914,-1.0914,-1.0914,-1.0914,-1.0914,-1.0766,-1.0789,-1.079,-1.0816,-1.0822,-1.0841,-1.0848,-1.0857,-1.0864,-1.0887,-1.09,-1.0903,-1.0911,-1.0927,-1.0942,-1.0943,-1.095,-1.0957,-1.0958,-1.0922,-1.0917,-1.0912,-1.0908,-1.0958,-1.0958,-1.0996,-1.0997,-1.0997]}]]